Snowfall_Accumulation
0.0 0.0 0.0 0.0 0.0 0.0 0.0 0.0 0.7 0.0 0.0 0.0 0.0 0.0 0.0 0.0 0.0 0.0 0.0 0.0 0.0 0.0 0.0 0.0 0.0 0.0 0.0 0.0 0.0 0.0 0.0 0.0 0.0 0.0 0.0 0.0 0.0 0.0 0.0 0.0 0.0 0.0 0.0 0.0
0.1 0.0 0.0 0.1 0.0 0.0 0.0 0.0 0.0 0.0 0.0 0.0 0.0 0.0 0.0 0.0 0.0 0.0 0.0 0.0 0.0 0.0 0.0 0.0 0.0 0.0 0.0 0.0 0.0 0.0 0.0 0.0 0.0 0.0 0.0 0.0 0.0 0.0 0.0 0.0 0.0 0.0 0.0 0.0
2.6 0.0 0.2 4.3 0.0 0.0 0.0 0.0 0.0 0.4 0.0 0.0 0.0 0.0 0.0 0.0 0.0 0.0 0.0 0.0 0.0 0.0 0.0 0.0 0.0 0.0 0.0 0.0 0.0 0.0 0.0 0.0 0.0 0.0 0.0 0.0 0.0 0.0 0.0 0.0 0.0 0.0 0.1 0.0
4.4 1.0 20.4 0.3 0.0 0.0 0.0 0.0 0.0 0.0 0.0 0.0 0.0 0.0 0.0 0.0 0.0 0.0 0.0 0.0 0.0 0.0 0.0 0.0 0.0 0.0 0.0 0.0 0.0 0.0 0.0 0.0 0.0 0.0 0.1 0.0 0.0 0.1 0.1 0.0 0.1 0.1 0.1 0.2
10.2 3.9 0.7 0.0 0.0 0.0 0.0 0.0 0.0 0.0 0.0 0.0 0.0 0.0 0.0 0.0 0.0 0.0 0.0 0.0 0.0 0.0 0.0 0.0 0.0 0.0 0.0 0.0 0.0 0.0 0.0 0.0 0.1 0.1 0.1 0.0 0.1 0.6 0.1 0.1 0.1 0.3 1.1 0.4
8.9 6.6 9.6 0.1 0.0 0.0 0.0 0.5 0.0 0.0 0.0 0.0 0.0 0.2 0.2 0.0 0.0 0.0 0.0 0.0 0.2 0.0 0.0 0.0 0.0 0.0 0.0 0.0 0.0 0.1 0.1 0.1 0.1 0.1 0.1 0.5 0.1 0.1 0.6 0.1 0.1 0.8 0.3 0.7
2.7 7.2 2.0 0.0 0.0 0.0 0.7 0.4 0.0 0.0 0.0 0.0 0.1 0.0 0.0 0.0 0.0 0.0 0.0 0.0 0.0 0.0 0.1 0.0 0.0 0.0 0.0 0.1 0.1 0.2 0.1 0.2 0.1 0.1 0.1 0.1 0.1 0.1 0.1 0.2 0.2 0.7 0.8 1.5
3.5 7.0 12.7 0.0 0.0 0.2 0.5 0.0 0.0 0.0 0.0 0.0 0.0 0.0 0.1 0.0 0.0 0.0 0.0 0.0 0.0 0.0 0.0 0.0 0.0 0.0 0.0 0.0 0.1 0.1 0.1 0.1 0.1 0.1 0.1 0.0 0.1 0.1 0.2 0.4 1.2 2.4 2.4 3.0
0.2 0.9 0.0 0.0 0.0 0.0 0.0 0.0 0.0 0.0 0.0 0.0 0.0 0.1 0.1 0.1 0.0 0.0 0.0 0.0 0.0 0.0 0.0 0.0 0.0 0.0 0.0 0.1 0.0 0.1 0.1 0.1 0.2 0.1 0.1 0.1 0.1 0.2 0.8 0.1 0.7 0.6 2.3 3.6
0.1 0.0 0.0 0.0 0.0 0.0 0.0 0.0 0.0 0.0 0.0 0.0 0.4 0.9 0.4 0.0 0.0 0.0 0.0 0.0 0.0 0.0 0.0 0.0 0.0 0.0 0.0 0.0 0.0 0.1 0.1 0.2 0.1 0.1 0.1 0.1 0.7 0.7 0.7 0.9 1.0 1.1 1.5 1.8
0.1 0.0 0.0 0.0 0.0 0.0 0.0 0.0 0.0 0.0 0.0 0.0 0.0 0.0 0.0 0.0 0.0 0.0 0.0 0.0 0.0 0.0 0.0 0.0 0.0 0.0 0.0 0.0 0.0 0.1 0.1 0.1 0.2 0.4 0.2 0.3 0.5 0.7 0.6 0.2 0.6 1.0 1.5 1.4
0.8 0.0 0.0 0.0 0.0 0.0 0.0 0.0 0.0 0.0 0.0 0.0 0.0 0.0 0.0 0.0 0.0 0.0 0.0 0.0 0.0 0.0 0.0 0.0 0.0 0.0 0.0 0.0 0.0 0.1 0.1 0.4 0.5 0.5 0.7 0.6 0.6 1.1 nan nan nan nan nan 0.8
0.0 0.0 0.0 0.0 0.0 0.0 0.0 0.0 0.0 0.0 0.0 0.0 0.0 0.0 0.0 0.0 0.0 nan 0.0 0.0 0.0 0.0 0.0 0.0 0.0 0.0 0.0 0.1 0.2 0.8 0.4 0.2 0.9 0.8 1.3 1.3 1.3 1.6 2.3 3.6 nan nan nan nan
0.0 0.0 0.0 0.0 0.1 0.0 0.0 0.0 0.0 0.0 0.0 0.0 0.0 0.0 0.0 0.0 0.0 0.0 0.0 0.0 0.0 0.0 0.0 0.0 0.0 0.1 0.1 0.1 0.1 0.2 0.1 0.0 0.6 0.7 0.8 0.9 1.0 1.1 1.0 1.5 3.1 3.0 nan nan
0.0 0.0 0.0 0.0 0.0 0.0 0.0 0.0 0.0 0.0 0.0 0.0 0.0 0.0 0.0 0.0 0.0 0.0 0.0 0.0 0.0 0.0 0.0 0.0 0.0 0.1 0.1 0.1 0.1 0.2 0.4 0.8 0.7 1.0 1.1 0.8 0.8 0.9 0.8 1.1 1.3 1.7 1.9 1.8
0.0 0.0 0.0 0.0 0.0 0.0 0.0 0.0 0.0 0.0 0.0 0.0 0.0 0.0 0.0 0.0 0.0 0.0 0.0 0.0 0.1 0.1 0.0 1.2 0.1 0.2 0.2 0.1 0.1 0.2 0.5 0.0 0.4 0.7 1.1 1.0 0.9 1.0 0.9 1.0 1.4 1.8 1.7 2.0
0.0 0.0 0.0 0.0 0.0 0.0 0.0 0.0 0.0 0.0 0.0 0.0 0.0 0.0 0.0 0.0 0.0 0.0 0.0 0.0 0.1 0.2 0.1 0.2 0.6 0.6 0.7 0.3 0.1 0.7 0.9 1.2 0.0 0.9 0.9 0.7 0.8 1.0 0.8 1.2 1.6 1.4 2.2 3.4
0.0 0.0 0.0 0.0 0.0 0.0 0.0 0.0 0.0 0.2 0.3 0.1 0.5 1.6 2.6 1.9 0.5 0.3 0.4 0.5 1.8 2.3 0.5 0.4 0.7 0.9 0.4 0.2 0.1 0.6 1.0 1.1 1.3 1.5 1.0 1.7 1.0 0.7 1.1 1.3 1.3 1.8 2.3 8.3
0.0 0.0 0.0 0.0 0.0 0.0 0.1 0.3 0.2 0.1 1.2 1.5 3.7 4.9 5.1 5.1 3.7 3.7 3.5 6.1 6.2 2.1 2.1 0.6 0.0 0.2 0.3 0.1 0.1 0.6 1.2 1.8 1.3 1.2 1.2 4.4 3.0 1.6 2.6 2.8 2.7 3.8 2.8 4.5
0.0 0.0 0.0 0.0 0.1 0.1 0.1 0.9 0.8 1.4 1.9 2.3 5.1 7.6 7.2 8.5 6.6 6.6 3.3 2.8 1.2 2.0 0.7 0.4 0.3 0.3 0.2 0.1 0.4 0.6 1.2 1.8 1.3 1.8 3.3 2.1 4.9 7.8 4.9 6.7 4.3 5.5 9.5 7.8
0.1 0.2 0.7 1.5 3.2 2.7 3.3 3.1 2.7 2.9 2.7 4.0 4.7 6.7 8.0 6.5 7.6 7.7 5.4 3.0 2.4 0.7 0.2 0.1 0.4 0.8 0.4 0.4 0.4 2.1 2.0 3.8 3.7 2.7 5.3 6.9 9.6 7.2 8.1 8.3 7.9 9.7 12.5 9.9
0.4 1.0 2.8 2.6 2.6 1.5 2.3 1.2 0.4 2.4 2.4 4.2 6.7 7.5 6.5 2.5 4.8 4.8 7.1 4.7 3.0 2.3 1.3 1.1 0.9 2.0 1.7 3.5 0.8 3.4 2.9 2.4 3.1 3.1 4.3 6.6 7.6 12.2 12.4 10.5 11.2 12.4 12.8 12.9
0.3 0.5 1.1 2.4 1.6 0.6 0.4 0.4 2.4 1.8 5.0 4.4 5.2 2.8 1.6 1.0 0.9 2.4 4.3 1.8 3.1 3.7 1.9 2.5 4.1 4.8 5.3 5.0 4.9 5.5 5.5 5.7 5.6 5.2 5.6 8.6 8.6 14.7 9.0 8.9 10.6 11.0 16.2 11.4
0.5 0.3 0.5 0.3 0.2 0.1 0.1 0.1 0.1 0.1 3.4 0.9 2.0 3.9 0.3 2.6 3.1 0.4 0.6 4.6 5.2 12.8 7.8 7.3 7.1 6.2 6.3 7.3 7.3 8.3 7.2 8.0 8.1 9.1 5.4 7.9 12.8 12.1 10.6 14.7 11.0 11.5 13.1 12.4
0.1 0.1 0.1 0.1 0.1 0.4 0.0 0.0 0.1 0.2 0.2 0.3 0.2 0.2 0.2 0.6 3.2 1.6 2.4 2.7 5.2 3.8 6.1 7.8 6.8 7.6 11.3 11.8 10.6 11.0 10.7 9.3 10.2 11.0 8.9 12.9 11.5 17.6 15.7 13.6 15.7 15.7 16.9 15.1
0.0 0.2 0.2 0.0 0.1 0.2 0.3 0.3 0.5 0.5 0.5 2.7 1.8 5.8 3.8 1.6 1.6 1.7 2.9 4.5 2.3 4.7 4.0 10.9 14.9 15.0 13.7 10.6 12.5 13.2 10.2 8.5 10.3 11.6 11.4 10.6 10.0 9.2 12.7 12.0 16.0 18.6 21.7 23.1
0.2 0.1 0.3 0.2 0.2 0.3 0.4 0.3 1.1 2.2 2.6 3.9 3.2 3.2 2.4 4.4 5.8 4.0 5.4 6.2 6.7 6.9 9.5 11.7 10.1 8.9 6.9 11.4 11.5 9.8 9.5 9.7 9.9 8.9 14.7 15.3 14.3 19.4 18.2 18.0 20.5 20.2 19.6 18.6
Water_Equivalent
0.00 0.00 0.00 0.00 0.00 0.00 0.00 0.00 0.18 0.00 0.00 0.00 0.00 0.00 0.00 0.00 0.00 0.00 0.00 0.00 0.00 0.00 0.00 0.00 0.00 0.00 0.00 0.00 0.00 0.00 0.00 0.00 0.00 0.00 0.00 0.00 0.00 0.00 0.00 0.00 0.00 0.00 0.00 0.00
0.02 0.00 0.00 0.02 0.00 0.00 0.00 0.00 0.00 0.00 0.00 0.00 0.00 0.00 0.00 0.00 0.00 0.00 0.00 0.00 0.00 0.00 0.00 0.00 0.00 0.00 0.00 0.00 0.00 0.00 0.00 0.00 0.00 0.00 0.00 0.00 0.00 0.00 0.00 0.00 0.00 0.00 0.00 0.01
0.54 0.01 0.04 0.73 0.01 0.00 0.00 0.00 0.00 0.12 0.00 0.00 0.00 0.00 0.00 0.00 0.00 0.00 0.00 0.00 0.00 0.00 0.00 0.00 0.00 0.00 0.00 0.00 0.00 0.00 0.00 0.00 0.00 0.00 0.00 0.00 0.00 0.00 0.00 0.00 0.00 0.00 0.02 0.01
0.97 0.21 2.64 0.07 0.00 0.00 0.00 0.00 0.00 0.00 0.00 0.00 0.00 0.00 0.00 0.00 0.00 0.00 0.00 0.00 0.00 0.00 0.00 0.00 0.00 0.00 0.00 0.00 0.00 0.00 0.00 0.00 0.00 0.00 0.02 0.00 0.01 0.02 0.02 0.01 0.03 0.02 0.02 0.05
1.78 0.66 0.14 0.00 0.00 0.00 0.00 0.00 0.00 0.00 0.00 0.00 0.00 0.00 0.00 0.00 0.00 0.00 0.00 0.01 0.00 0.00 0.00 0.00 0.00 0.00 0.00 0.00 0.00 0.00 0.01 0.01 0.02 0.02 0.02 0.02 0.03 0.20 0.03 0.02 0.02 0.08 0.34 0.12
1.58 0.94 1.41 0.01 0.00 0.00 0.00 0.12 0.00 0.00 0.00 0.00 0.00 0.05 0.07 0.00 0.00 0.00 0.00 0.00 0.07 0.01 0.00 0.00 0.00 0.00 0.00 0.00 0.02 0.02 0.02 0.02 0.02 0.03 0.03 0.20 0.03 0.03 0.22 0.02 0.04 0.25 0.08 0.21
0.54 1.14 0.35 0.00 0.00 0.00 0.15 0.07 0.00 0.00 0.00 0.00 0.03 0.00 0.00 0.00 0.00 0.00 0.00 0.00 0.00 0.01 0.05 0.00 0.00 0.00 0.00 0.02 0.02 0.08 0.04 0.07 0.04 0.02 0.02 0.03 0.05 0.04 0.04 0.09 0.08 0.22 0.25 0.46
0.70 1.18 1.53 0.00 0.00 0.03 0.11 0.00 0.00 0.00 0.00 0.00 0.00 0.00 0.02 0.01 0.00 0.00 0.00 0.00 0.00 0.00 0.00 0.01 0.00 0.00 0.00 0.00 0.02 0.02 0.05 0.04 0.04 0.04 0.02 0.01 0.03 0.04 0.08 0.14 0.43 0.78 0.76 0.93
0.03 0.20 0.00 0.00 0.00 0.00 0.00 0.00 0.00 0.00 0.00 0.00 0.00 0.03 0.03 0.02 0.01 0.00 0.00 0.00 0.00 0.00 0.00 0.00 0.00 0.00 0.02 0.03 0.01 0.03 0.03 0.04 0.06 0.05 0.04 0.04 0.04 0.05 0.23 0.03 0.19 0.16 0.61 0.92
0.01 0.00 0.00 0.00 0.00 0.00 0.00 0.00 0.00 0.00 0.00 0.00 0.13 0.34 0.11 0.01 0.00 0.00 0.00 0.00 0.00 0.00 0.00 0.00 0.00 0.00 0.00 0.01 0.02 0.03 0.04 0.04 0.03 0.03 0.04 0.04 0.18 0.22 0.21 0.25 0.28 0.30 0.38 0.45
0.01 0.00 0.00 0.00 0.00 0.00 0.00 0.00 0.00 0.00 0.00 0.00 0.00 0.00 0.00 0.00 0.00 0.00 0.00 0.00 0.00 0.00 0.00 0.00 0.00 0.00 0.00 0.01 0.01 0.02 0.02 0.03 0.04 0.10 0.05 0.08 0.13 0.18 0.17 0.07 0.18 0.29 0.40 0.39
0.18 0.00 0.00 0.00 0.00 0.00 0.00 0.00 0.00 0.00 0.00 0.00 0.00 0.00 0.00 0.00 0.00 0.00 0.00 0.00 0.00 0.00 0.00 0.00 0.00 0.00 0.00 0.00 0.00 0.02 0.04 0.13 0.17 0.16 0.19 0.18 0.20 0.30 nan nan nan nan nan 0.26
0.00 0.00 0.00 0.00 0.00 0.00 0.00 0.00 0.00 0.00 0.00 0.00 0.00 0.00 0.00 0.00 0.00 nan 0.00 0.00 0.00 0.00 0.00 0.00 0.00 0.01 0.01 0.04 0.07 0.28 0.13 0.08 0.33 0.27 0.46 0.45 0.40 0.45 0.58 0.94 nan nan nan nan
0.00 0.00 0.00 0.00 0.03 0.00 0.00 0.00 0.00 0.00 0.00 0.00 0.00 0.00 0.00 0.00 0.00 0.00 0.00 0.00 0.00 0.00 0.00 0.00 0.00 0.02 0.02 0.02 0.02 0.06 0.04 0.00 0.21 0.24 0.26 0.27 0.29 0.32 0.28 0.42 0.75 0.74 nan nan
0.00 0.00 0.00 0.00 0.00 0.00 0.00 0.00 0.00 0.00 0.00 0.00 0.00 0.00 0.00 0.00 0.00 0.00 0.00 0.00 0.00 0.00 0.00 0.00 0.00 0.02 0.02 0.03 0.05 0.07 0.11 0.28 0.25 0.33 0.35 0.27 0.24 0.26 0.24 0.33 0.39 0.45 0.51 0.52
0.00 0.00 0.00 0.00 0.00 0.00 0.00 0.00 0.00 0.00 0.00 0.01 0.00 0.00 0.00 0.00 0.00 0.00 0.00 0.00 0.02 0.03 0.00 0.28 0.03 0.04 0.05 0.04 0.05 0.06 0.18 0.01 0.14 0.23 0.33 0.30 0.27 0.28 0.26 0.30 0.38 0.48 0.43 0.46
0.00 0.00 0.00 0.00 0.00 0.00 0.00 0.00 0.00 0.00 0.00 0.00 0.00 0.00 0.00 0.00 0.00 0.00 0.00 0.01 0.02 0.04 0.03 0.04 0.13 0.17 0.19 0.08 0.04 0.20 0.25 0.32 0.01 0.25 0.26 0.22 0.24 0.30 0.23 0.34 0.42 0.36 0.59 0.90
0.00 0.00 0.00 0.01 0.00 0.00 0.00 0.00 0.00 0.04 0.08 0.03 0.14 0.40 0.60 0.45 0.10 0.07 0.08 0.12 0.40 0.51 0.11 0.09 0.15 0.20 0.11 0.06 0.03 0.15 0.24 0.27 0.34 0.39 0.27 0.45 0.29 0.21 0.31 0.36 0.38 0.48 0.61 2.24
0.00 0.00 0.00 0.00 0.00 0.00 0.02 0.06 0.05 0.03 0.29 0.36 0.88 1.14 1.12 1.23 0.84 0.83 0.77 1.40 1.38 0.39 0.39 0.12 0.00 0.04 0.06 0.03 0.04 0.16 0.26 0.46 0.30 0.29 0.30 1.41 0.78 0.42 0.65 0.74 0.72 0.99 0.74 1.00
0.00 0.00 0.00 0.00 0.02 0.02 0.03 0.22 0.22 0.33 0.48 0.54 1.32 2.01 1.72 1.87 1.46 1.49 0.72 0.54 0.25 0.44 0.13 0.10 0.07 0.06 0.05 0.03 0.12 0.14 0.30 0.46 0.31 0.46 0.81 0.51 1.23 1.92 1.23 2.17 1.08 1.36 2.35 1.88
0.02 0.04 0.17 0.36 0.76 0.70 0.86 0.84 0.66 0.65 0.61 0.97 1.12 1.54 1.73 1.49 1.67 1.72 1.14 0.66 0.48 0.16 0.07 0.03 0.11 0.20 0.11 0.10 0.09 0.57 0.56 1.02 0.97 0.66 1.25 1.82 2.57 1.79 1.96 2.20 2.04 2.57 3.06 2.40
0.10 0.23 0.66 0.57 0.58 0.33 0.56 0.29 0.11 0.52 0.51 0.98 1.65 1.92 1.45 0.45 0.95 0.98 1.65 0.96 0.69 0.76 0.39 0.32 0.25 0.66 0.53 1.13 0.22 0.98 0.77 0.63 0.79 0.79 1.04 1.75 1.97 3.07 3.06 2.66 2.66 3.07 3.11 3.18
0.08 0.11 0.25 0.51 0.35 0.15 0.09 0.10 0.57 0.44 1.10 0.99 1.22 0.63 0.37 0.25 0.22 0.51 0.76 0.34 0.73 1.15 0.45 0.65 1.35 1.59 1.74 1.44 1.40 1.58 1.55 1.53 1.48 1.36 1.51 2.42 2.33 4.02 2.11 2.08 2.50 2.55 3.67 2.48
0.11 0.06 0.10 0.08 0.05 0.02 0.02 0.02 0.01 0.03 0.75 0.18 0.45 0.94 0.09 0.68 0.94 0.11 0.17 1.52 1.71 3.87 1.99 1.97 2.08 2.04 2.08 2.17 2.07 2.30 2.02 2.23 2.21 2.45 1.20 2.56 3.54 2.89 2.30 3.30 2.05 2.56 2.82 2.50
0.03 0.02 0.03 0.03 0.02 0.11 0.01 0.01 0.03 0.04 0.04 0.06 0.04 0.05 0.04 0.15 0.80 0.41 0.71 0.76 1.70 1.08 1.51 2.42 2.24 2.51 3.01 3.14 2.80 2.76 2.71 2.18 2.44 2.84 1.95 3.05 2.85 4.29 3.64 2.79 3.25 3.30 3.31 2.88
0.00 0.07 0.05 0.00 0.04 0.07 0.08 0.08 0.14 0.13 0.15 0.63 0.40 1.48 1.06 0.46 0.44 0.44 0.75 1.36 0.56 1.51 0.94 2.73 3.68 3.70 3.35 2.29 2.81 2.86 2.09 1.67 2.08 2.24 2.31 2.17 2.13 1.77 2.29 2.17 2.99 3.74 4.59 5.03
0.07 0.02 0.08 0.07 0.07 0.09 0.11 0.09 0.32 0.53 0.71 0.93 0.74 0.82 0.62 1.06 1.44 1.12 1.69 1.52 1.65 1.67 2.31 2.92 2.48 2.57 1.52 2.62 2.39 1.96 1.87 1.92 2.85 1.58 2.79 3.06 2.81 3.93 3.50 3.55 4.08 4.56 3.90 3.29
SL_Ratio
nan nan nan nan nan nan nan nan 3.8 nan nan nan nan nan nan nan nan nan nan nan nan nan nan nan nan nan nan nan nan nan nan nan nan nan nan nan nan nan nan nan nan nan nan nan
3.8 nan nan 3.7 nan nan nan nan nan nan nan nan nan nan nan nan nan nan nan nan nan nan nan nan nan nan nan nan nan nan nan nan nan nan nan nan nan nan nan nan nan nan 3.3 3.5
4.8 2.5 4.2 5.8 4.1 nan nan nan nan 3.6 3.3 nan nan nan nan nan nan nan nan nan nan nan nan nan nan nan nan nan nan nan nan nan nan nan nan 2.7 nan nan nan nan nan 3.6 3.4 3.9
4.6 4.5 7.7 4.7 nan nan nan nan nan nan nan nan nan nan nan nan nan nan nan nan nan nan nan nan nan nan nan nan nan nan 0.0 2.5 0.0 2.5 2.9 nan 2.9 3.0 3.1 3.3 3.3 3.3 3.5 3.3
5.7 5.9 5.2 nan nan nan nan nan nan nan nan nan nan nan nan nan nan nan nan 2.5 nan nan nan nan nan nan nan nan nan 3.3 3.0 2.8 2.7 2.8 3.1 2.9 3.2 2.9 3.0 3.3 3.3 3.5 3.3 3.7
5.6 7.1 6.8 4.5 nan nan nan 4.1 nan nan nan nan nan 3.0 2.5 nan nan nan nan 0.0 2.5 2.6 nan nan nan nan 3.3 3.0 2.7 2.6 2.5 2.6 2.7 2.7 2.8 2.5 2.7 3.0 2.6 3.0 3.2 3.3 3.6 3.4
4.9 6.3 5.6 nan nan nan 5.1 5.3 4.0 nan nan nan 2.8 3.3 nan nan nan nan nan nan nan 2.5 2.5 1.7 nan nan nan 2.4 2.7 2.6 2.5 2.5 2.5 2.8 2.7 2.7 2.5 2.5 2.7 2.8 2.8 3.3 3.3 3.3
5.1 5.9 8.3 nan nan 5.3 4.5 nan nan nan nan nan nan 2.2 2.6 2.5 2.5 nan nan nan nan nan nan 2.6 3.3 nan 3.3 3.8 2.7 2.7 2.6 2.7 2.8 2.7 2.6 2.9 2.8 3.0 3.0 3.0 2.8 3.0 3.1 3.2
4.5 4.4 nan nan nan nan nan nan nan nan nan nan nan 2.7 2.5 2.9 2.6 nan nan nan nan nan nan nan nan nan 2.5 2.9 2.9 2.8 3.2 3.2 3.0 3.0 3.2 3.2 3.3 3.4 3.5 3.7 3.6 3.8 3.8 3.9
4.5 nan nan nan nan nan nan nan nan nan nan nan 2.9 2.8 3.3 3.0 nan nan nan nan nan nan nan nan nan nan 2.0 3.0 2.8 3.1 3.6 3.9 3.9 3.9 3.7 3.8 3.6 3.5 3.5 3.6 3.7 3.8 4.0 4.0
4.2 nan nan nan nan nan nan nan nan nan nan nan nan nan nan nan nan nan nan nan nan nan nan nan nan nan nan 2.7 3.1 3.6 3.7 3.9 4.1 3.8 3.9 3.8 3.6 3.6 3.5 3.6 3.5 3.6 3.7 3.6
4.3 nan 3.6 nan nan nan nan nan nan nan nan nan nan nan nan nan nan nan nan nan nan nan nan nan nan nan nan nan nan 3.3 4.0 3.3 3.2 3.2 3.4 3.4 3.3 3.6 nan nan nan nan nan 3.1
3.1 nan nan nan nan nan nan nan nan nan nan nan nan nan nan nan nan nan nan nan nan nan nan nan nan 3.5 2.9 2.7 2.6 2.9 2.8 2.8 2.8 2.8 2.9 3.0 3.2 3.4 4.0 3.9 nan nan nan nan
nan nan nan nan 2.5 nan nan nan nan nan nan nan nan nan nan nan nan nan nan nan nan nan nan nan 5.0 3.6 3.2 3.3 3.3 3.1 3.2 nan 2.9 3.0 3.1 3.3 3.3 3.4 3.4 3.6 4.1 4.1 nan nan
nan nan nan nan nan nan nan nan nan nan nan nan nan nan nan nan nan nan nan nan nan nan nan nan 3.3 3.6 3.3 3.0 3.1 3.3 3.1 3.1 3.0 3.0 3.1 3.1 3.1 3.3 3.3 3.4 3.4 3.9 3.8 3.4
nan nan nan nan nan nan nan nan nan nan nan 3.3 5.0 nan nan nan nan nan nan nan 3.0 3.5 nan 4.1 3.9 3.8 3.4 3.1 3.3 3.7 3.1 3.3 3.1 3.2 3.3 3.4 3.2 3.4 3.5 3.3 3.5 3.7 4.1 4.2
5.0 0.0 nan nan nan nan nan 5.0 4.5 nan nan nan nan nan nan nan 0.0 3.6 2.5 3.5 3.4 3.8 3.7 4.1 4.3 3.9 3.8 3.5 3.5 3.2 3.4 3.6 2.9 3.4 3.6 3.4 3.3 3.4 3.4 3.6 3.8 3.8 3.8 3.8
nan nan 3.6 4.2 nan 0.0 4.3 nan 6.7 4.1 4.2 4.4 3.9 4.0 4.4 4.3 4.8 4.4 4.5 4.5 4.5 4.5 4.4 4.3 4.6 4.4 4.0 3.6 3.7 4.1 4.3 4.2 4.0 3.8 3.7 3.7 3.5 3.3 3.5 3.6 3.5 3.7 3.8 3.7
nan nan nan nan nan nan 4.8 4.9 4.7 3.9 4.1 4.3 4.2 4.3 4.5 4.2 4.4 4.5 4.6 4.4 4.5 5.4 5.2 4.8 nan 5.0 4.5 4.0 3.6 4.1 4.5 3.9 4.3 4.2 4.0 3.1 3.9 3.9 4.0 3.8 3.8 3.8 3.8 4.5
nan nan nan 6.2 4.6 3.8 4.0 4.0 3.9 4.2 4.0 4.3 3.9 3.8 4.2 4.6 4.5 4.4 4.6 5.2 5.1 4.6 5.0 4.6 4.4 5.3 4.9 4.2 3.2 4.3 4.0 3.8 4.3 3.9 4.1 4.2 4.0 4.1 4.0 3.1 4.0 4.1 4.0 4.2
3.3 3.6 4.0 4.2 4.2 3.9 3.8 3.7 4.1 4.5 4.4 4.1 4.2 4.4 4.6 4.4 4.5 4.5 4.7 4.5 5.0 4.2 3.4 3.4 3.8 3.7 3.4 4.1 3.8 3.6 3.6 3.7 3.8 4.1 4.2 3.8 3.7 4.0 4.1 3.8 3.8 3.8 4.1 4.1
3.8 4.2 4.3 4.5 4.5 4.5 4.2 4.1 4.1 4.6 4.7 4.3 4.1 3.9 4.5 5.5 5.0 4.9 4.3 4.8 4.3 3.0 3.4 3.3 3.7 3.1 3.2 3.0 3.7 3.5 3.7 3.8 3.9 3.9 4.1 3.8 3.8 4.0 4.0 4.0 4.2 4.0 4.1 4.0
3.9 4.2 4.4 4.6 4.5 4.5 4.2 4.1 4.1 4.2 4.6 4.5 4.3 4.4 4.2 4.1 3.8 4.8 5.7 5.2 4.3 3.2 4.2 3.9 3.1 3.0 3.0 3.5 3.5 3.5 3.6 3.7 3.8 3.8 3.7 3.5 3.7 3.7 4.3 4.3 4.2 4.3 4.4 4.6
4.3 4.6 5.3 4.3 4.2 4.3 4.5 4.5 4.3 4.5 4.6 4.8 4.3 4.1 4.0 3.9 3.3 3.2 3.2 3.0 3.1 3.3 3.9 3.7 3.4 3.0 3.0 3.3 3.5 3.6 3.6 3.6 3.7 3.7 4.5 3.1 3.6 4.2 4.6 4.5 5.4 4.5 4.6 4.9
4.2 3.8 4.1 5.4 5.2 3.7 4.3 4.4 4.1 4.4 4.7 4.4 4.9 4.6 4.5 3.6 3.9 3.8 3.3 3.5 3.1 3.5 4.1 3.2 3.0 3.0 3.7 3.8 3.8 4.0 4.0 4.3 4.2 3.9 4.6 4.2 4.0 4.1 4.3 4.9 4.8 4.8 5.1 5.2
4.0 3.1 3.2 nan 3.4 3.3 3.3 3.4 3.4 3.7 3.6 4.3 4.5 3.9 3.6 3.4 3.7 3.8 3.9 3.3 4.0 3.1 4.2 4.0 4.1 4.1 4.1 4.7 4.5 4.6 4.9 5.1 4.9 5.2 4.9 4.9 4.7 5.2 5.6 5.5 5.4 5.0 4.7 4.6
3.1 2.9 3.1 3.1 3.2 3.5 3.5 3.5 3.6 4.2 3.7 4.2 4.4 3.9 3.8 4.1 4.0 3.6 3.2 4.1 4.1 4.1 4.1 4.0 4.1 3.5 4.5 4.3 4.8 5.0 5.1 5.1 3.5 5.7 5.3 5.0 5.1 4.9 5.2 5.1 5.0 4.4 5.0 5.7